FW0884 Miller Place NY US current weather conditions

sailwx.info

Wind from 221 at 8 knots gusting 21

Air temperature 7.2° C
Dewpoint 1.7° C

Last reported at 2019-Dec-15 15:03 UTC.
Time now 2019-Dec-15 16:13 UTC

Location: N 40°56' W 072°59'.
View on Google Maps.

See reports from other nearby stations

  
Tides and Currents Weather Stations Pressure Air Temp Water Temp Dewpoint Dewpoint Depression Visibility Wind Speed Wind Dir Waves Ship Positions
date/time (UTC)wind fromknots sea level pressurealtimeterstation pressurevisibilityair tempwater tempwave heightnotes
2019-Dec-15 15:03 221 8 gusting 21 7.2
2019-Dec-15 14:55 276 7 gusting 14 7.2
2019-Dec-15 14:50 192 6 gusting 16 7.2
2019-Dec-15 14:48 255 8 gusting 16 7.2
2019-Dec-15 14:41 257 5 gusting 13 7.2
2019-Dec-15 14:35 238 6 gusting 13 7.2
2019-Dec-15 14:31 243 7 gusting 16 7.2
2019-Dec-15 14:25 234 6 gusting 15 6.7
2019-Dec-15 14:20 244 7 gusting 13 6.7
2019-Dec-15 14:17 234 6 gusting 13 6.7
2019-Dec-15 14:10 219 6 gusting 13 6.7
2019-Dec-15 14:05 257 8 gusting 13 6.1
2019-Dec-15 14:02 240 8 gusting 14 6.1
2019-Dec-15 13:55 243 6 gusting 14 6.1
2019-Dec-15 13:51 244 7 gusting 13 6.1
2019-Dec-15 13:46 240 6 gusting 14 6.1
2019-Dec-15 13:41 315 7 gusting 14 6.1
2019-Dec-15 13:35 250 7 gusting 14 6.1
2019-Dec-15 13:31 245 8 gusting 14 6.1
2019-Dec-15 13:25 270 7 gusting 13 6.1
2019-Dec-15 13:20 252 6 gusting 11 6.1
2019-Dec-15 13:10 254 8 gusting 15 6.1
2019-Dec-15 13:05 236 5 gusting 13 6.1
2019-Dec-15 13:01 249 7 gusting 13 6.1
2019-Dec-15 12:55 254 6 gusting 14 6.1
2019-Dec-15 12:50 253 6 gusting 14 6.1
2019-Dec-15 12:46 255 7 gusting 13 6.1
2019-Dec-15 12:40 250 6 gusting 12 6.1
2019-Dec-15 12:35 267 7 gusting 12 5.6
2019-Dec-15 12:32 250 6 gusting 13 5.6
2019-Dec-15 12:25 237 6 gusting 13 5.6
2019-Dec-15 12:20 233 6 gusting 13 5.6
2019-Dec-15 12:17 230 8 gusting 13 5.6
2019-Dec-15 12:10 261 4 gusting 12 5.6
2019-Dec-15 12:05 250 5 gusting 13 5.6
2019-Dec-15 12:00 238 6 gusting 11 5.0
2019-Dec-15 11:55 256 6 gusting 9 5.0
2019-Dec-15 11:50 240 5 gusting 12 5.0
2019-Dec-15 11:46 268 6 gusting 12 5.6
2019-Dec-15 11:40 269 6 gusting 10 5.6
2019-Dec-15 11:35 264 6 gusting 12 5.6
2019-Dec-15 11:31 269 5 gusting 13 5.6
2019-Dec-15 11:25 229 6 gusting 13 5.6
2019-Dec-15 11:20 240 5 gusting 12 5.6
2019-Dec-15 11:15 225 3 gusting 13 5.6
2019-Dec-15 11:10 254 5 gusting 11 5.6
2019-Dec-15 11:05 287 5 gusting 13 5.6
2019-Dec-15 11:01 261 5 gusting 16 5.6
2019-Dec-15 10:55 250 8 gusting 16 5.6
2019-Dec-15 10:50 296 6 gusting 13 5.6
2019-Dec-15 10:40 244 6 gusting 13 5.6
2019-Dec-15 10:35 274 6 gusting 15 5.6
2019-Dec-15 10:30 252 8 gusting 15 5.6
2019-Dec-15 10:25 261 6 gusting 15 5.6
2019-Dec-15 10:20 255 7 gusting 15 5.6
2019-Dec-15 10:10 261 6 gusting 11 5.6
2019-Dec-15 10:05 248 6 gusting 13 5.6
2019-Dec-15 09:55 231 7 gusting 13 5.6
2019-Dec-15 09:50 254 5 gusting 14 5.6
2019-Dec-15 09:45 248 7 gusting 14 5.6
2019-Dec-15 09:40 234 5 gusting 12 6.1
2019-Dec-15 09:35 237 6 gusting 12 6.1
2019-Dec-15 09:25 248 5 gusting 13 6.1
2019-Dec-15 09:20 248 6 gusting 18 6.1
2019-Dec-15 09:15 306 9 gusting 18 6.1
2019-Dec-15 09:10 293 6 gusting 20 6.1
2019-Dec-15 09:05 306 7 gusting 20 6.1
2019-Dec-15 08:56 338 8 gusting 18 6.1
2019-Dec-15 08:51 283 10 gusting 21 6.1
2019-Dec-15 08:46 254 8 gusting 21 6.1
2019-Dec-15 08:41 240 6 gusting 21 6.1
2019-Dec-15 08:36 263 8 gusting 21 6.1
2019-Dec-15 08:32 273 6 gusting 19 6.1
2019-Dec-15 08:26 275 11 gusting 19 6.1
2019-Dec-15 08:21 267 8 gusting 19 6.1
2019-Dec-15 08:17 253 9 gusting 19 6.1
2019-Dec-15 08:10 267 7 gusting 16 6.1
2019-Dec-15 08:05 246 6 gusting 20 6.1
2019-Dec-15 08:03 263 9 gusting 20 6.1
2019-Dec-15 07:55 256 9 gusting 19 6.1
2019-Dec-15 07:50 252 10 gusting 16 6.1
2019-Dec-15 07:47 242 8 gusting 16 6.1
2019-Dec-15 07:41 253 9 gusting 16 6.1
2019-Dec-15 07:35 267 8 gusting 16 6.1
2019-Dec-15 07:33 252 7 gusting 18 6.1
2019-Dec-15 07:25 250 9 gusting 18 6.1
2019-Dec-15 07:20 291 9 gusting 14 6.1
2019-Dec-15 07:16 276 6 gusting 17 6.1
2019-Dec-15 07:10 261 8 gusting 17 6.1
2019-Dec-15 07:06 287 5 gusting 16 6.1
2019-Dec-15 07:02 263 9 gusting 17 6.1
2019-Dec-15 06:55 248 10 gusting 17 6.1
2019-Dec-15 06:50 227 8 gusting 13 6.1
2019-Dec-15 06:46 269 6 gusting 14 6.1
2019-Dec-15 06:40 271 6 gusting 14 6.1
2019-Dec-15 06:35 250 6 gusting 13 6.1
2019-Dec-15 06:30 237 8 gusting 12 6.1
2019-Dec-15 06:25 261 5 gusting 14 6.1
2019-Dec-15 06:20 303 6 gusting 14 6.1
2019-Dec-15 06:16 263 9 gusting 14 6.1
2019-Dec-15 06:10 244 8 gusting 13 6.1
2019-Dec-15 06:05 267 8 gusting 13 6.1
2019-Dec-15 06:00 308 6 gusting 15 6.1
2019-Dec-15 05:55 274 6 gusting 15 6.1
2019-Dec-15 05:50 290 6 gusting 16 6.1
2019-Dec-15 05:46 259 9 gusting 16 6.1
2019-Dec-15 05:40 268 6 gusting 13 6.1
2019-Dec-15 05:31 263 9 gusting 18 6.1
2019-Dec-15 05:25 249 8 gusting 15 6.1
2019-Dec-15 05:20 245 8 gusting 16 6.1
2019-Dec-15 05:16 299 11 gusting 17 6.1
2019-Dec-15 05:10 251 8 gusting 17 6.1
2019-Dec-15 05:05 230 6 gusting 16 6.7
2019-Dec-15 05:01 298 10 gusting 19 6.7
2019-Dec-15 04:55 284 7 gusting 19 6.7
2019-Dec-15 04:50 238 8 gusting 15 6.7
2019-Dec-15 04:45 282 8 gusting 21 6.7
2019-Dec-15 04:40 279 9 gusting 22 6.7
2019-Dec-15 04:35 242 12 gusting 20 7.2
2019-Dec-15 04:25 225 12 gusting 24 7.2
2019-Dec-15 04:15 279 13 gusting 22 7.8
2019-Dec-15 04:00 240 8 gusting 17 8.3
2019-Dec-15 03:55 250 6 gusting 17 8.3
2019-Dec-15 03:50 265 7 gusting 17 8.3
2019-Dec-15 03:45 226 10 gusting 16 8.3
2019-Dec-15 03:40 256 8 gusting 17 8.3
2019-Dec-15 03:35 248 9 gusting 17 8.3
2019-Dec-15 03:30 238 5 gusting 17 8.3
2019-Dec-15 03:25 240 8 gusting 17 8.3
2019-Dec-15 03:20 236 10 gusting 17 8.9
2019-Dec-15 03:15 256 7 gusting 18 8.9
2019-Dec-15 03:10 248 9 gusting 18 8.9
2019-Dec-15 03:02 228 9 gusting 19 8.9
2019-Dec-15 02:55 260 6 gusting 15 8.9
2019-Dec-15 02:51 254 9 gusting 15 9.4
2019-Dec-15 02:46 295 9 gusting 18 9.4
2019-Dec-15 02:40 259 8 gusting 18 9.4
2019-Dec-15 02:35 230 6 gusting 13 9.4
2019-Dec-15 02:31 224 6 gusting 13 9.4
2019-Dec-15 02:26 242 7 gusting 13 9.4
2019-Dec-15 02:20 249 6 gusting 12 9.4
2019-Dec-15 02:17 223 4 gusting 12 9.4
2019-Dec-15 02:11 221 7 gusting 13 9.4
2019-Dec-15 02:06 210 7 gusting 13 9.4
2019-Dec-15 02:02 215 6 gusting 13 9.4
2019-Dec-15 01:55 197 6 gusting 14 9.4
2019-Dec-15 01:51 241 9 gusting 15 9.4
2019-Dec-15 01:46 225 9 gusting 15 9.4
2019-Dec-15 01:40 270 7 gusting 16 9.4
2019-Dec-15 01:35 273 9 gusting 16 9.4
2019-Dec-15 01:32 238 7 gusting 15 9.4
2019-Dec-15 01:25 241 9 gusting 20 9.4
2019-Dec-15 01:21 210 12 gusting 20 9.4
2019-Dec-15 01:18 233 11 gusting 22 9.4
2019-Dec-15 01:10 250 12 gusting 19 10.0
2019-Dec-15 01:05 238 9 gusting 13 10.0
2019-Dec-15 01:02 199 4 gusting 14 10.0
2019-Dec-15 00:55 244 7 gusting 14 10.0
2019-Dec-15 00:50 267 8 gusting 13 10.0
2019-Dec-15 00:47 218 7 gusting 14 10.0
2019-Dec-15 00:40 216 7 gusting 14 10.6
2019-Dec-15 00:35 238 8 gusting 13 10.6
2019-Dec-15 00:31 229 6 gusting 11 10.6
2019-Dec-15 00:25 240 6 gusting 13 10.6
2019-Dec-15 00:20 209 7 gusting 13 10.6
2019-Dec-15 00:17 207 5 gusting 12 10.6
2019-Dec-15 00:10 219 5 gusting 12 10.6
2019-Dec-15 00:05 238 6 gusting 12 10.6
2019-Dec-15 00:01 199 6 gusting 12 10.6
2019-Dec-14 23:55 213 6 gusting 12 10.6
2019-Dec-14 23:50 216 6 gusting 13 11.1
2019-Dec-14 23:46 199 6 gusting 13 11.1
2019-Dec-14 23:40 222 6 gusting 8 11.1
2019-Dec-14 23:35 226 6 gusting 10 11.1
2019-Dec-14 23:32 196 6 gusting 10 11.1
2019-Dec-14 23:25 221 6 gusting 12 11.1
2019-Dec-14 23:20 222 6 gusting 12 11.1
2019-Dec-14 23:16 228 8 gusting 14 11.1
2019-Dec-14 23:10 234 6 gusting 12 11.7
2019-Dec-14 23:05 229 7 gusting 12 11.7
2019-Dec-14 23:01 256 5 gusting 10 11.7
2019-Dec-14 22:55 197 6 gusting 13 11.7
2019-Dec-14 22:50 171 6 gusting 15 11.7
2019-Dec-14 22:46 206 6 gusting 15 11.7
2019-Dec-14 22:40 196 7 gusting 14 11.7
2019-Dec-14 22:35 237 7 gusting 17 11.7
2019-Dec-14 22:31 202 12 gusting 17 11.7
2019-Dec-14 22:25 181 9 gusting 14 11.7
2019-Dec-14 22:21 186 6 gusting 15 12.2
2019-Dec-14 22:16 251 6 gusting 14 12.2
2019-Dec-14 22:10 200 7 gusting 13 12.2
2019-Dec-14 22:05 209 7 gusting 13 12.2
2019-Dec-14 22:02 207 6 gusting 11 12.2
2019-Dec-14 21:55 229 6 gusting 15 12.2
2019-Dec-14 21:50 213 6 gusting 15 12.8
2019-Dec-14 21:46 195 6 gusting 13 12.8
2019-Dec-14 21:41 212 6 gusting 12 12.8
2019-Dec-14 21:35 150 5 gusting 16 12.8
2019-Dec-14 21:32 208 9 gusting 18 12.8
2019-Dec-14 21:25 203 5 gusting 18 12.8
2019-Dec-14 21:20 198 7 gusting 13 13.3
2019-Dec-14 21:05 173 7 gusting 15 13.3
2019-Dec-14 21:01 200 6 gusting 18 13.3
2019-Dec-14 20:55 128 6 gusting 18 13.3
2019-Dec-14 20:50 173 6 gusting 13 13.3
2019-Dec-14 20:45 214 8 gusting 14 13.3
2019-Dec-14 20:40 185 6 gusting 18 13.9
2019-Dec-14 20:35 186 6 gusting 18 13.9
2019-Dec-14 20:31 215 6 gusting 12 13.9
2019-Dec-14 20:25 246 6 gusting 13 13.9
2019-Dec-14 20:20 205 6 gusting 13 13.9
2019-Dec-14 20:16 205 6 gusting 13 13.9
2019-Dec-14 20:10 175 6 gusting 12 13.9
2019-Dec-14 20:05 180 6 gusting 12 13.9
2019-Dec-14 20:00 182 4 gusting 12 13.9
2019-Dec-14 19:55 201 6 gusting 12 13.9
2019-Dec-14 19:50 175 6 gusting 13 13.9
2019-Dec-14 19:45 184 6 gusting 13 13.9
2019-Dec-14 19:40 223 4 gusting 15 13.9
2019-Dec-14 19:35 205 6 gusting 15 13.9
2019-Dec-14 19:30 183 4 gusting 9 13.9
2019-Dec-14 19:25 224 4 gusting 9 13.9
2019-Dec-14 19:20 190 6 gusting 12 13.9
2019-Dec-14 19:10 195 4 gusting 9 13.9
2019-Dec-14 19:01 205 3 gusting 9 14.4
2019-Dec-14 18:55 240 3 gusting 10 14.4
2019-Dec-14 18:45 219 3 gusting 8 14.4
2019-Dec-14 18:40 205 5 gusting 9 14.4
2019-Dec-14 18:30 178 4 gusting 10 14.4
2019-Dec-14 18:25 161 1 gusting 8 14.4
2019-Dec-14 18:20 165 2 gusting 9 14.4
2019-Dec-14 18:10 205 1 gusting 6 14.4
2019-Dec-14 18:00 166 1 gusting 6 14.4
2019-Dec-14 17:55 132 3 gusting 6 14.4
2019-Dec-14 17:50 175 1 gusting 6 14.4
2019-Dec-14 17:40 184 0 gusting 5 14.4
2019-Dec-14 17:35 135 2 gusting 5 14.4
2019-Dec-14 17:30 134 0 gusting 4 14.4
2019-Dec-14 17:25 175 1 gusting 4 14.4
2019-Dec-14 17:20 199 1 gusting 4 14.4
2019-Dec-14 17:10 211 0 gusting 4 13.9
2019-Dec-14 17:05 194 0 gusting 3 13.9
2019-Dec-14 16:51 175 2 gusting 5 13.9
2019-Dec-14 16:46 173 1 gusting 5 13.9
2019-Dec-14 16:41 192 1 gusting 5 13.9
2019-Dec-14 16:35 190 1 gusting 4 14.4
2019-Dec-14 16:31 166 1 gusting 6 14.4
2019-Dec-14 16:25 198 1 gusting 6 14.4
2019-Dec-14 16:20 206 1 gusting 5 14.4
2019-Dec-14 16:17 212 2 gusting 5 14.4
2019-Dec-14 16:10 231 2 gusting 5 14.4
2019-Dec-14 16:05 237 2 gusting 5 14.4
2019-Dec-14 16:02 203 2 gusting 6 13.9
2019-Dec-14 15:55 202 2 gusting 7 14.4
2019-Dec-14 15:50 214 2 gusting 6 14.4
2019-Dec-14 15:47 201 3 gusting 6 14.4
2019-Dec-14 15:41 216 3 gusting 6 14.4
2019-Dec-14 15:36 217 1 gusting 6 14.4
2019-Dec-14 15:31 221 3 gusting 6 14.4
2019-Dec-14 15:25 185 2 gusting 6 14.4
2019-Dec-14 15:20 185 2 gusting 6 14.4
2019-Dec-14 15:16 193 2 gusting 6 14.4
2019-Dec-14 15:10 232 3 gusting 6 14.4
2019-Dec-14 15:05 211 2 gusting 6 14.4
2019-Dec-14 15:01 229 3 gusting 6 14.4
2019-Dec-14 14:56 195 1 gusting 6 14.4
2019-Dec-14 14:50 204 2 gusting 8 14.4
2019-Dec-14 14:46 196 2 gusting 8 14.4
2019-Dec-14 14:40 176 3 gusting 6 14.4
2019-Dec-14 14:35 186 2 gusting 7 14.4
2019-Dec-14 14:31 142 1 gusting 7 14.4
2019-Dec-14 14:25 188 2 gusting 6 14.4
2019-Dec-14 14:20 187 1 gusting 4 14.4
2019-Dec-14 14:17 150 1 gusting 6 14.4
2019-Dec-14 14:10 207 2 gusting 6 14.4
2019-Dec-14 14:05 211 2 gusting 5 14.4
2019-Dec-14 14:02 216 2 gusting 6 14.4
2019-Dec-14 13:55 258 2 gusting 7 14.4
2019-Dec-14 13:50 212 3 gusting 13 14.4
2019-Dec-14 13:47 200 3 gusting 13 14.4
2019-Dec-14 13:40 223 3 gusting 5 14.4
2019-Dec-14 13:36 204 2 gusting 8 14.4
2019-Dec-14 13:32 221 3 gusting 8 14.4
2019-Dec-14 13:25 209 4 gusting 9 14.4
2019-Dec-14 13:20 183 3 gusting 9 14.4
2019-Dec-14 13:16 200 3 gusting 6 14.4
2019-Dec-14 13:10 180 3 gusting 7 14.4
2019-Dec-14 13:05 225 3 gusting 8 14.4
2019-Dec-14 13:01 201 3 gusting 7 14.4
2019-Dec-14 12:55 193 4 gusting 7 14.4
2019-Dec-14 12:50 205 4 gusting 6 14.4
2019-Dec-14 12:46 182 3 gusting 10 14.4
2019-Dec-14 12:40 205 3 gusting 12 14.4
2019-Dec-14 12:35 172 6 gusting 13 14.4
2019-Dec-14 12:31 140 4 gusting 13 14.4
2019-Dec-14 12:25 171 3 gusting 8 14.4
2019-Dec-14 12:20 210 4 gusting 10 14.4
2019-Dec-14 12:16 190 4 gusting 10 14.4
2019-Dec-14 12:10 208 3 gusting 14 14.4
2019-Dec-14 12:05 155 5 gusting 13 14.4
2019-Dec-14 12:02 208 3 gusting 13 14.4
2019-Dec-14 11:55 175 6 gusting 13 14.4
2019-Dec-14 11:50 178 3 gusting 13 14.4
2019-Dec-14 11:46 171 4 gusting 13 14.4
2019-Dec-14 11:40 203 3 gusting 9 14.4
2019-Dec-14 11:35 207 3 gusting 10 14.4
2019-Dec-14 11:30 246 3 gusting 13 14.4
2019-Dec-14 11:25 163 4 gusting 13 14.4
2019-Dec-14 11:20 176 5 gusting 12 14.4
2019-Dec-14 10:55 178 2 gusting 7 14.4
2019-Dec-14 10:50 174 3 gusting 10 14.4
2019-Dec-14 10:45 142 5 gusting 10 14.4
2019-Dec-14 10:40 149 3 gusting 12 14.4
2019-Dec-14 10:35 134 4 gusting 12 14.4
2019-Dec-14 10:25 122 3 gusting 11 14.4
2019-Dec-14 10:20 132 4 gusting 11 14.4
2019-Dec-14 10:10 145 4 gusting 10 14.4
2019-Dec-14 10:05 118 4 gusting 9 14.4
2019-Dec-14 09:55 182 3 gusting 10 14.4
2019-Dec-14 09:50 093 4 gusting 12 14.4
2019-Dec-14 09:40 146 6 gusting 12 14.4
2019-Dec-14 09:35 173 4 gusting 12 14.4
2019-Dec-14 09:30 169 6 gusting 13 14.4
2019-Dec-14 09:25 151 5 gusting 13 14.4
2019-Dec-14 09:20 166 6 gusting 12 14.4
2019-Dec-14 09:05 211 4 gusting 12 14.4
2019-Dec-14 09:00 178 3 gusting 13 13.9
2019-Dec-14 08:55 177 3 gusting 13 13.9
2019-Dec-14 08:46 158 6 gusting 13 13.9
2019-Dec-14 08:40 119 5 gusting 13 13.9
2019-Dec-14 08:35 182 5 gusting 13 13.3
2019-Dec-14 08:33 173 6 gusting 11 13.3
2019-Dec-14 08:26 164 3 gusting 13 13.3
2019-Dec-14 08:20 122 7 gusting 13 13.3
2019-Dec-14 08:17 172 5 gusting 21 13.3
2019-Dec-14 08:10 194 6 gusting 21 13.3
2019-Dec-14 08:05 132 7 gusting 16 13.3
2019-Dec-14 08:01 123 5 gusting 16 13.3
2019-Dec-14 07:55 130 6 gusting 16 13.3
2019-Dec-14 07:50 130 6 gusting 16 12.8
2019-Dec-14 07:47 134 7 gusting 16 12.8
2019-Dec-14 07:41 096 5 gusting 13 12.2
2019-Dec-14 07:35 079 6 gusting 13 12.2
2019-Dec-14 07:32 138 5 gusting 12 12.2
2019-Dec-14 07:25 155 5 gusting 12 12.2
2019-Dec-14 07:20 082 5 gusting 11 11.7
2019-Dec-14 07:16 118 3 gusting 9 11.7
2019-Dec-14 07:10 079 3 gusting 10 11.7
2019-Dec-14 07:05 045 2 gusting 11 11.1
2019-Dec-14 07:01 083 5 gusting 11 10.6
2019-Dec-14 06:55 105 2 gusting 8 10.0
2019-Dec-14 06:50 087 2 gusting 8 10.0
2019-Dec-14 06:46 067 3 gusting 6 10.0
2019-Dec-14 06:40 078 2 gusting 6 10.0
2019-Dec-14 06:35 051 2 gusting 6 10.0
2019-Dec-14 06:30 355 2 gusting 9 10.0
2019-Dec-14 06:25 038 2 gusting 9 10.0
2019-Dec-14 06:20 052 5 gusting 9 10.6
2019-Dec-14 06:16 045 4 gusting 10 11.1
2019-Dec-14 06:10 096 6 gusting 10 11.1
2019-Dec-14 06:05 074 3 gusting 9 11.7
2019-Dec-14 06:01 069 4 gusting 11 11.7
2019-Dec-14 05:55 123 6 gusting 12 11.7
2019-Dec-14 05:50 078 5 gusting 13 11.7
2019-Dec-14 05:40 078 4 gusting 11 11.7
2019-Dec-14 05:30 082 4 gusting 13 11.7
2019-Dec-14 05:20 090 6 gusting 12 11.7
2019-Dec-14 05:10 094 5 gusting 10 11.7
2019-Dec-14 05:05 094 3 gusting 10 11.7
2019-Dec-14 04:55 120 3 gusting 12 11.7
2019-Dec-14 04:50 107 4 gusting 12 11.1
2019-Dec-14 04:45 092 6 gusting 12 11.1
2019-Dec-14 04:36 074 3 gusting 10 11.7
2019-Dec-14 04:32 119 6 gusting 10 11.1
2019-Dec-14 04:26 055 3 gusting 13 11.1
2019-Dec-14 04:21 115 6 gusting 9 11.1
2019-Dec-14 04:17 009 2 gusting 12 11.1
2019-Dec-14 04:10 084 6 gusting 12 11.1
2019-Dec-14 04:05 083 4 gusting 12 11.1
2019-Dec-14 04:04 105 6 gusting 12 11.1
2019-Dec-14 03:56 091 4 gusting 12 11.1
2019-Dec-14 03:50 019 4 gusting 11 10.6
2019-Dec-14 03:47 105 3 gusting 7 10.6
2019-Dec-14 03:40 078 3 gusting 7 10.6
2019-Dec-14 03:35 088 3 gusting 7 10.6
2019-Dec-14 03:31 080 1 gusting 7 10.6
2019-Dec-14 03:25 064 1 gusting 7 10.6
2019-Dec-14 03:20 059 3 gusting 7 10.6
2019-Dec-14 03:16 080 2 gusting 11 10.6
2019-Dec-14 03:10 098 3 gusting 11 10.6
2019-Dec-14 03:06 077 4 gusting 9 10.6
2019-Dec-14 03:01 069 1 gusting 9 10.6
2019-Dec-14 02:55 066 2 gusting 9 10.6
2019-Dec-14 02:51 080 3 gusting 8 10.6
2019-Dec-14 02:47 069 3 gusting 8 10.6
2019-Dec-14 02:40 098 2 gusting 9 10.6
2019-Dec-14 02:35 106 4 gusting 9 10.6
2019-Dec-14 02:32 044 3 gusting 11 10.6
2019-Dec-14 02:25 134 3 gusting 11 10.6
2019-Dec-14 02:20 019 3 gusting 9 10.6
2019-Dec-14 02:16 055 3 gusting 9 10.6
2019-Dec-14 02:10 132 2 gusting 8 10.0
2019-Dec-14 02:05 138 2 gusting 9 10.0
2019-Dec-14 02:00 080 2 gusting 9 10.0
2019-Dec-14 01:55 101 2 gusting 8 10.0
2019-Dec-14 01:50 106 1 gusting 8 10.0
2019-Dec-14 01:46 024 3 gusting 8 10.0
2019-Dec-14 01:40 068 1 gusting 7 10.0
2019-Dec-14 01:35 071 2 gusting 10 10.0
2019-Dec-14 01:30 091 3 gusting 10 10.0
2019-Dec-14 01:25 098 3 gusting 9 10.0
2019-Dec-14 01:20 086 2 gusting 9 10.0
2019-Dec-14 01:16 074 3 gusting 9 10.0
2019-Dec-14 01:10 076 4 gusting 8 10.0
2019-Dec-14 01:05 088 2 gusting 6 9.4
2019-Dec-14 00:55 081 3 gusting 7 9.4
2019-Dec-14 00:50 095 2 gusting 6 9.4
2019-Dec-14 00:40 131 2 gusting 6 9.4
2019-Dec-14 00:30 127 3 gusting 9 8.9
2019-Dec-14 00:25 119 1 gusting 9 8.9
2019-Dec-14 00:20 075 8.9
2019-Dec-14 00:15 112 1 gusting 5 8.3
2019-Dec-14 00:10 117 0 gusting 3 8.3
2019-Dec-14 00:05 064 8.3
2019-Dec-14 00:00 054 1 gusting 6 8.3
2019-Dec-13 23:55 078 1 gusting 6 7.8
2019-Dec-13 23:50 121 1 gusting 6 7.8
2019-Dec-13 23:45 057 0 gusting 6 7.2
2019-Dec-13 23:40 101 7.2
2019-Dec-13 23:33 065 7.2
2019-Dec-13 23:26 049 0 gusting 3 7.2
2019-Dec-13 23:20 094 7.2
2019-Dec-13 23:18 094 7.2
2019-Dec-13 23:10 094 0 gusting 2 7.2
2019-Dec-13 23:05 094 6.7
2019-Dec-13 23:03 094 0 gusting 3 6.7
2019-Dec-13 22:55 094 0 gusting 5 6.7
2019-Dec-13 22:50 093 0 gusting 5 6.7
2019-Dec-13 22:49 081 0 gusting 3 6.1
2019-Dec-13 22:40 099 0 gusting 3 6.1
2019-Dec-13 22:35 109 0 gusting 3 6.1
2019-Dec-13 22:33 095 0 gusting 1 6.1
2019-Dec-13 22:25 082 6.1
2019-Dec-13 22:21 082 6.1
2019-Dec-13 22:16 077 6.1
2019-Dec-13 22:10 082 0 gusting 6 6.1
2019-Dec-13 22:05 084 0 gusting 6 6.1
2019-Dec-13 22:02 012 6.1
2019-Dec-13 21:55 012 6.1
2019-Dec-13 21:50 012 6.1
2019-Dec-13 21:47 360 6.7
2019-Dec-13 21:40 360 0 gusting 1 6.7
2019-Dec-13 21:35 360 6.7
2019-Dec-13 21:33 360 0 gusting 1 6.7
2019-Dec-13 21:25 005 6.7
2019-Dec-13 21:20 355 1 gusting 3 6.7
2019-Dec-13 21:16 066 0 gusting 4 6.7
2019-Dec-13 21:10 055 0 gusting 4 6.7
2019-Dec-13 21:05 055 1 gusting 4 6.1
2019-Dec-13 21:02 054 1 gusting 5 6.7
2019-Dec-13 20:55 066 2 gusting 5 6.7
2019-Dec-13 20:50 061 2 gusting 6 6.7
2019-Dec-13 20:47 080 2 gusting 5 6.7
2019-Dec-13 20:40 054 2 gusting 7 6.7
2019-Dec-13 20:35 055 2 gusting 4 6.7
2019-Dec-13 20:31 030 1 gusting 4 6.7
2019-Dec-13 20:25 057 0 gusting 4 6.7
2019-Dec-13 20:20 010 1 gusting 4 6.1
2019-Dec-13 20:16 055 1 gusting 5 6.1
2019-Dec-13 20:10 042 2 gusting 6 6.1
2019-Dec-13 20:05 026 1 gusting 5 6.1
2019-Dec-13 20:00 342 1 gusting 5 6.1
2019-Dec-13 19:55 040 1 gusting 4 6.1
2019-Dec-13 19:50 024 1 gusting 4 6.1
2019-Dec-13 19:46 024 2 gusting 4 6.1
2019-Dec-13 19:40 355 2 gusting 4 6.1
2019-Dec-13 19:35 355 1 gusting 4 6.1
2019-Dec-13 19:31 014 1 gusting 4 6.1
2019-Dec-13 19:25 028 1 gusting 3 5.6
2019-Dec-13 19:20 024 0 gusting 2 5.6
2019-Dec-13 19:16 022 0 gusting 2 5.6
2019-Dec-13 19:10 022 0 gusting 3 5.6
2019-Dec-13 19:05 023 1 gusting 3 5.6
2019-Dec-13 19:01 005 0 gusting 3 5.6
2019-Dec-13 18:55 017 0 gusting 3 6.1
2019-Dec-13 18:50 020 0 gusting 2 5.6
2019-Dec-13 18:46 020 5.6
2019-Dec-13 18:40 020 0 gusting 2 5.6
2019-Dec-13 18:35 020 0 gusting 3 5.6
2019-Dec-13 18:30 020 1 gusting 3 6.1
2019-Dec-13 18:25 033 0 gusting 2 5.6
2019-Dec-13 18:20 015 0 gusting 3 5.6
2019-Dec-13 18:15 019 0 gusting 3 5.6
2019-Dec-13 18:10 037 1 gusting 3 5.6
2019-Dec-13 18:05 014 1 gusting 3 5.6
2019-Dec-13 18:00 040 1 gusting 2 5.6
2019-Dec-13 17:55 049 0 gusting 2 6.1
2019-Dec-13 17:50 073 0 gusting 2 6.1
2019-Dec-13 17:40 073 6.1
2019-Dec-13 17:35 073 0 gusting 2 6.1
2019-Dec-13 17:25 067 0 gusting 3 6.7
2019-Dec-13 17:20 058 0 gusting 3 7.2
2019-Dec-13 17:10 069 0 gusting 3 6.1
2019-Dec-13 17:05 085 0 gusting 3 6.1
2019-Dec-13 17:00 060 1 gusting 5 5.6
2019-Dec-13 16:55 086 1 gusting 5 5.0
2019-Dec-13 16:45 070 1 gusting 2 4.4
2019-Dec-13 16:40 140 0 gusting 1 5.0
2019-Dec-13 16:35 140 0 gusting 1 5.0
2019-Dec-13 16:30 140 5.0
2019-Dec-13 16:25 140 5.0
2019-Dec-13 16:20 140 0 gusting 2 5.0
2019-Dec-13 16:10 140 5.0
2019-Dec-13 16:05 140 0 gusting 2 5.6